AVA8583 SKBO-SKPS

Flight info

Callsign AVA8583
Flight time 0h 46m
Altitude 36000
Route VAPOM4R VAPOM DCT OREGA DCT PPN DCT MER
Aircraft A320/M-SDE3FGHIRWY/LB1

Departure

Time 2026-04-26 15:03
Airport El Dorado International Airport (SKBO)

Arrival

Time 2026-04-26 15:49
Airport Antonio Nariño Airport (SKPS)
Time Latitude Longitude Altitude Speed Heading
2026-04-26 14:45 4.69785 -74.14534 8373 ft 0 kts 37°
2026-04-26 14:50 4.69775 -74.14542 8372 ft 4 kts 39°
2026-04-26 14:50 4.69766 -74.14549 8371 ft 0 kts 37°
2026-04-26 14:51 4.69767 -74.14548 8371 ft 0 kts 37°
2026-04-26 14:54 4.69749 -74.14557 8372 ft 4 kts 352°
2026-04-26 14:54 4.69726 -74.14547 8373 ft 4 kts 315°
2026-04-26 14:54 4.69718 -74.14537 8372 ft 0 kts 307°
2026-04-26 14:56 4.69731 -74.14554 8373 ft 8 kts 308°
2026-04-26 14:56 4.69778 -74.14616 8373 ft 14 kts 307°
2026-04-26 14:56 4.69845 -74.14704 8373 ft 17 kts 305°
2026-04-26 14:56 4.69915 -74.14801 8371 ft 17 kts 307°
2026-04-26 14:57 4.69918 -74.14897 8372 ft 16 kts 222°
2026-04-26 14:57 4.69866 -74.14987 8373 ft 16 kts 289°
2026-04-26 14:57 4.69937 -74.15083 8373 ft 18 kts 306°
2026-04-26 14:57 4.70013 -74.15182 8373 ft 19 kts 308°
2026-04-26 14:58 4.70099 -74.15295 8373 ft 22 kts 307°
2026-04-26 14:58 4.70197 -74.15424 8373 ft 25 kts 307°
2026-04-26 14:58 4.70306 -74.15567 8374 ft 27 kts 306°
2026-04-26 14:58 4.70416 -74.15718 8373 ft 27 kts 307°
2026-04-26 14:59 4.70529 -74.15869 8370 ft 27 kts 307°
2026-04-26 14:59 4.70645 -74.16020 8373 ft 27 kts 307°
2026-04-26 14:59 4.70761 -74.16172 8374 ft 28 kts 307°
2026-04-26 14:59 4.70838 -74.16273 8374 ft 28 kts 307°
2026-04-26 15:00 4.70996 -74.16478 8371 ft 28 kts 307°
2026-04-26 15:00 4.71114 -74.16633 8374 ft 28 kts 307°
2026-04-26 15:00 4.71199 -74.16768 8372 ft 16 kts 274°
2026-04-26 15:00 4.71135 -74.16846 8373 ft 16 kts 217°
2026-04-26 15:01 4.71077 -74.16888 8373 ft 2 kts 214°
2026-04-26 15:01 4.71058 -74.16897 8373 ft 4 kts 195°
2026-04-26 15:01 4.71033 -74.16885 8373 ft 3 kts 130°
2026-04-26 15:01 4.71032 -74.16884 8373 ft 0 kts 127°
2026-04-26 15:02 4.70898 -74.16707 8373 ft 69 kts 127°
2026-04-26 15:02 4.70477 -74.16151 8375 ft 129 kts 127°
2026-04-26 15:02 4.69828 -74.15292 8375 ft 177 kts 127°
2026-04-26 15:02 4.69045 -74.14255 8844 ft 189 kts 126°
2026-04-26 15:03 4.68160 -74.13259 9510 ft 197 kts 149°
2026-04-26 15:03 4.66813 -74.13042 9961 ft 206 kts 198°
2026-04-26 15:03 4.65711 -74.13909 10498 ft 206 kts 239°
2026-04-26 15:03 4.65027 -74.15158 11121 ft 202 kts 241°
2026-04-26 15:04 4.64327 -74.16370 11642 ft 205 kts 239°
2026-04-26 15:04 4.63532 -74.17653 11788 ft 228 kts 238°
2026-04-26 15:04 4.62663 -74.19059 11977 ft 247 kts 238°
2026-04-26 15:04 4.61754 -74.20588 12419 ft 259 kts 246°
2026-04-26 15:05 4.61252 -74.22333 13038 ft 269 kts 258°
2026-04-26 15:05 4.60989 -74.23581 13231 ft 285 kts 259°
2026-04-26 15:05 4.60457 -74.26328 13576 ft 316 kts 258°
2026-04-26 15:05 4.59696 -74.28468 13763 ft 339 kts 240°
2026-04-26 15:06 4.58453 -74.30568 13917 ft 361 kts 241°
2026-04-26 15:06 4.57259 -74.32834 14350 ft 372 kts 243°
2026-04-26 15:06 4.56114 -74.35173 14951 ft 376 kts 244°
2026-04-26 15:06 4.54971 -74.37549 15505 ft 381 kts 244°
2026-04-26 15:07 4.52608 -74.42359 16688 ft 388 kts 243°
2026-04-26 15:07 4.51383 -74.44780 17269 ft 391 kts 243°
2026-04-26 15:07 4.50136 -74.47219 17854 ft 395 kts 243°
2026-04-26 15:08 4.48876 -74.49673 18440 ft 398 kts 243°
2026-04-26 15:08 4.47602 -74.52150 18864 ft 401 kts 243°
2026-04-26 15:08 4.46317 -74.54645 19313 ft 405 kts 243°
2026-04-26 15:08 4.45023 -74.57161 19685 ft 408 kts 243°
2026-04-26 15:09 4.43718 -74.59696 20133 ft 411 kts 243°
2026-04-26 15:09 4.42405 -74.62254 20558 ft 415 kts 243°
2026-04-26 15:09 4.41085 -74.64839 20962 ft 419 kts 243°
2026-04-26 15:09 4.39754 -74.67449 21381 ft 422 kts 243°
2026-04-26 15:10 4.38427 -74.70042 21797 ft 426 kts 243°
2026-04-26 15:10 4.37510 -74.71827 22075 ft 428 kts 243°
2026-04-26 15:10 4.35690 -74.75359 22596 ft 433 kts 242°
2026-04-26 15:10 4.34302 -74.78051 23001 ft 436 kts 242°
2026-04-26 15:11 4.32902 -74.80761 23432 ft 440 kts 242°
2026-04-26 15:11 4.31487 -74.83492 23799 ft 443 kts 242°
2026-04-26 15:11 4.30066 -74.86238 24152 ft 445 kts 242°
2026-04-26 15:11 4.28639 -74.89000 24511 ft 447 kts 242°
2026-04-26 15:12 4.27207 -74.91777 24881 ft 449 kts 242°
2026-04-26 15:12 4.25774 -74.94566 25243 ft 452 kts 242°
2026-04-26 15:12 4.24336 -74.97374 25601 ft 454 kts 242°
2026-04-26 15:12 4.22890 -75.00193 26037 ft 456 kts 242°
2026-04-26 15:13 4.21432 -75.03026 26375 ft 458 kts 242°
2026-04-26 15:13 4.19760 -75.05742 26719 ft 459 kts 232°
2026-04-26 15:13 4.17836 -75.08307 27069 ft 461 kts 232°
2026-04-26 15:13 4.15905 -75.10881 27404 ft 463 kts 232°
2026-04-26 15:14 4.13964 -75.13470 27734 ft 466 kts 232°
2026-04-26 15:14 4.12018 -75.16073 28021 ft 468 kts 232°
2026-04-26 15:14 4.10066 -75.18686 28331 ft 470 kts 232°
2026-04-26 15:14 4.08103 -75.21312 28642 ft 472 kts 231°
2026-04-26 15:15 4.06130 -75.23948 28932 ft 474 kts 231°
2026-04-26 15:15 4.04148 -75.26596 29221 ft 476 kts 231°
2026-04-26 15:15 4.02157 -75.29253 29496 ft 478 kts 231°
2026-04-26 15:15 4.00157 -75.31919 29775 ft 480 kts 231°
2026-04-26 15:16 3.98144 -75.34600 30022 ft 482 kts 231°
2026-04-26 15:16 3.96128 -75.37282 30411 ft 481 kts 231°
2026-04-26 15:16 3.94122 -75.39958 30779 ft 480 kts 231°
2026-04-26 15:16 3.92126 -75.42630 31149 ft 479 kts 231°
2026-04-26 15:17 3.90134 -75.45295 31521 ft 477 kts 231°
2026-04-26 15:17 3.88818 -75.47053 31773 ft 476 kts 231°
2026-04-26 15:17 3.85893 -75.50357 32294 ft 473 kts 221°
2026-04-26 15:17 3.83357 -75.52437 32631 ft 471 kts 217°
2026-04-26 15:18 3.80783 -75.54458 33006 ft 470 kts 217°
2026-04-26 15:18 3.78219 -75.56476 33388 ft 468 kts 217°
2026-04-26 15:18 3.75662 -75.58493 33764 ft 468 kts 217°
2026-04-26 15:18 3.73108 -75.60508 34149 ft 467 kts 217°
2026-04-26 15:19 3.70563 -75.62516 34480 ft 465 kts 217°
2026-04-26 15:19 3.68024 -75.64519 34838 ft 464 kts 217°
2026-04-26 15:19 3.65491 -75.66517 35184 ft 463 kts 217°
2026-04-26 15:19 3.62964 -75.68510 35519 ft 462 kts 217°
2026-04-26 15:20 3.60447 -75.70496 35854 ft 460 kts 217°
2026-04-26 15:20 3.57931 -75.72477 36097 ft 460 kts 218°
2026-04-26 15:20 3.52912 -75.76427 36153 ft 458 kts 218°
2026-04-26 15:21 3.47905 -75.80372 36183 ft 458 kts 217°
2026-04-26 15:21 3.42905 -75.84307 36182 ft 457 kts 217°
2026-04-26 15:22 3.37903 -75.88239 36165 ft 457 kts 217°
2026-04-26 15:22 3.32906 -75.92174 36165 ft 457 kts 217°
2026-04-26 15:23 3.27912 -75.96110 36166 ft 457 kts 217°
2026-04-26 15:23 3.22915 -76.00043 36163 ft 457 kts 217°
2026-04-26 15:24 3.17951 -76.03948 36164 ft 457 kts 217°
2026-04-26 15:24 3.12951 -76.07885 36150 ft 457 kts 218°
2026-04-26 15:25 3.08766 -76.11181 36155 ft 457 kts 217°
2026-04-26 15:25 3.02952 -76.15755 36155 ft 457 kts 218°
2026-04-26 15:26 2.97948 -76.19692 36154 ft 458 kts 218°
2026-04-26 15:26 2.92940 -76.23628 36135 ft 458 kts 217°
2026-04-26 15:27 2.87921 -76.27574 36133 ft 459 kts 217°
2026-04-26 15:27 2.82898 -76.31530 36136 ft 460 kts 217°
2026-04-26 15:28 2.77868 -76.35486 36145 ft 460 kts 217°
2026-04-26 15:28 2.73647 -76.38801 36129 ft 460 kts 217°
2026-04-26 15:29 2.68612 -76.42761 36161 ft 460 kts 217°
2026-04-26 15:30 2.58576 -76.50660 36218 ft 461 kts 217°
2026-04-26 15:30 2.56055 -76.52644 35947 ft 462 kts 217°
2026-04-26 15:30 2.53505 -76.54647 34844 ft 471 kts 216°
2026-04-26 15:31 2.50896 -76.56695 33639 ft 482 kts 216°
2026-04-26 15:31 2.45567 -76.60878 31448 ft 492 kts 216°
2026-04-26 15:31 2.42883 -76.62999 30462 ft 493 kts 217°
2026-04-26 15:32 2.38383 -76.66642 28481 ft 497 kts 218°
2026-04-26 15:32 2.34847 -76.69543 27169 ft 494 kts 218°
2026-04-26 15:32 2.32197 -76.71725 26167 ft 492 kts 218°
2026-04-26 15:33 2.29562 -76.73889 25272 ft 488 kts 218°
2026-04-26 15:33 2.26946 -76.76032 24435 ft 483 kts 219°
2026-04-26 15:33 2.24356 -76.78147 23608 ft 478 kts 219°
2026-04-26 15:33 2.21790 -76.80235 22670 ft 473 kts 219°
2026-04-26 15:34 2.19248 -76.82303 21853 ft 468 kts 219°
2026-04-26 15:34 2.16733 -76.84346 21020 ft 464 kts 219°
2026-04-26 15:34 2.14252 -76.86361 20461 ft 455 kts 219°
2026-04-26 15:34 2.11813 -76.88342 19745 ft 450 kts 219°
2026-04-26 15:35 2.09396 -76.90304 19088 ft 445 kts 219°
2026-04-26 15:35 2.07012 -76.92241 18459 ft 439 kts 219°
2026-04-26 15:35 2.04654 -76.94162 17707 ft 434 kts 219°
2026-04-26 15:35 2.02332 -76.96053 17091 ft 427 kts 219°
2026-04-26 15:36 2.00048 -76.97914 16505 ft 420 kts 219°
2026-04-26 15:36 1.97800 -76.99747 15911 ft 414 kts 219°
2026-04-26 15:36 1.95581 -77.01555 15346 ft 408 kts 219°
2026-04-26 15:36 1.93419 -77.03315 15204 ft 392 kts 219°
2026-04-26 15:37 1.91381 -77.04970 15091 ft 377 kts 219°
2026-04-26 15:37 1.89385 -77.06593 14972 ft 363 kts 219°
2026-04-26 15:37 1.87465 -77.08156 14859 ft 349 kts 219°
2026-04-26 15:37 1.85615 -77.09663 14714 ft 337 kts 219°
2026-04-26 15:38 1.83826 -77.11120 14597 ft 327 kts 219°
2026-04-26 15:38 1.82091 -77.12530 14482 ft 317 kts 219°
2026-04-26 15:38 1.80406 -77.13900 14365 ft 307 kts 219°
2026-04-26 15:38 1.78741 -77.15191 14242 ft 299 kts 212°
2026-04-26 15:39 1.76936 -77.16190 14033 ft 295 kts 208°
2026-04-26 15:39 1.75131 -77.17154 13760 ft 294 kts 208°
2026-04-26 15:39 1.73333 -77.18116 13445 ft 292 kts 208°
2026-04-26 15:39 1.72147 -77.18751 13243 ft 291 kts 208°
2026-04-26 15:40 1.69779 -77.20015 13008 ft 285 kts 207°
2026-04-26 15:40 1.68023 -77.20954 12624 ft 287 kts 208°
2026-04-26 15:40 1.66262 -77.21898 12306 ft 287 kts 208°
2026-04-26 15:40 1.64501 -77.22842 11988 ft 286 kts 208°
2026-04-26 15:41 1.62752 -77.23779 11668 ft 285 kts 207°
2026-04-26 15:41 1.61005 -77.24716 11294 ft 286 kts 207°
2026-04-26 15:41 1.59287 -77.25637 11058 ft 282 kts 207°
2026-04-26 15:41 1.57540 -77.26571 10770 ft 280 kts 207°
2026-04-26 15:42 1.55843 -77.27478 10458 ft 279 kts 207°
2026-04-26 15:42 1.54135 -77.28389 10157 ft 277 kts 207°
2026-04-26 15:42 1.52439 -77.29292 9896 ft 274 kts 206°
2026-04-26 15:42 1.50760 -77.30153 9638 ft 261 kts 206°
2026-04-26 15:43 1.49196 -77.30932 9380 ft 248 kts 205°
2026-04-26 15:43 1.47684 -77.31681 9163 ft 238 kts 206°
2026-04-26 15:43 1.44795 -77.33117 8705 ft 219 kts 206°
2026-04-26 15:44 1.43474 -77.33775 8459 ft 205 kts 206°
2026-04-26 15:44 1.41112 -77.34954 8025 ft 176 kts 207°
2026-04-26 15:44 1.40071 -77.35474 8103 ft 161 kts 208°
2026-04-26 15:45 1.38098 -77.36402 8587 ft 156 kts 196°
2026-04-26 15:45 1.37011 -77.36544 8538 ft 160 kts 177°
2026-04-26 15:46 1.35021 -77.35748 8079 ft 155 kts 139°
2026-04-26 15:46 1.34323 -77.34929 7865 ft 155 kts 118°
2026-04-26 15:46 1.33929 -77.33928 7620 ft 154 kts 100°
2026-04-26 15:46 1.33849 -77.33231 7461 ft 153 kts 89°
2026-04-26 15:47 1.34128 -77.31860 7152 ft 151 kts 64°
2026-04-26 15:47 1.35475 -77.30331 6685 ft 148 kts 29°
2026-04-26 15:47 1.36409 -77.29952 6462 ft 144 kts 12°
2026-04-26 15:48 1.37379 -77.29711 6272 ft 145 kts 13°
2026-04-26 15:48 1.38342 -77.29443 6049 ft 143 kts 14°
2026-04-26 15:48 1.39275 -77.29201 5928 ft 132 kts 14°
2026-04-26 15:48 1.40022 -77.28999 5886 ft 90 kts 14°
2026-04-26 15:49 1.40388 -77.28906 5865 ft 33 kts 14°
2026-04-26 15:49 1.40572 -77.28863 5861 ft 15 kts 359°
2026-04-26 15:49 1.40630 -77.28859 5852 ft 5 kts 36°
2026-04-26 15:49 1.40619 -77.28845 5853 ft 2 kts 165°
2026-04-26 15:50 1.40577 -77.28856 5857 ft 12 kts 195°
2026-04-26 15:50 1.40459 -77.28887 5874 ft 19 kts 194°
2026-04-26 15:50 1.40335 -77.28918 5880 ft 18 kts 194°
2026-04-26 15:50 1.40224 -77.28945 5875 ft 14 kts 194°
2026-04-26 15:51 1.40140 -77.28969 5884 ft 13 kts 197°
2026-04-26 15:51 1.40014 -77.29003 5889 ft 24 kts 195°
2026-04-26 15:51 1.39855 -77.29046 5894 ft 22 kts 194°
2026-04-26 15:51 1.39712 -77.29083 5906 ft 20 kts 194°
2026-04-26 15:52 1.39615 -77.29105 5907 ft 4 kts 178°
2026-04-26 15:52 1.39591 -77.29073 5908 ft 7 kts 115°
2026-04-26 15:52 1.39584 -77.29037 5908 ft 4 kts 92°
2026-04-26 15:52 1.39582 -77.29021 5908 ft 3 kts 95°
2026-04-26 15:53 1.39577 -77.29000 5908 ft 2 kts 105°
2026-04-26 15:53 1.39574 -77.28991 5908 ft 1 kts 105°